Temp
-2 -4 -3 -2 -2 -2 -2 -2 -3 -3 -4 -5 -6 -6 -5 -5 -5 -6 -5 -5 -5 -5 -4 -4 -4 -3 -3 -3 -3 -4 -3 -2 -1 -2 -2 -1 -2 -2 -2 -1 -1 -2 -3 -0
-3 -4 -3 -2 -3 -3 -3 -3 -3 -4 -5 -7 -7 -7 -6 -6 -6 -6 -6 -6 -5 -6 -5 -5 -4 -4 -3 -3 -3 -3 -3 -3 -2 -2 -2 -2 -2 -2 -2 -2 -2 -2 -2 1
-5 -5 -3 -3 -3 -3 -3 -4 -4 -5 -6 -7 -7 -7 -7 -7 -7 -6 -6 -6 -6 -6 -6 -6 -5 -6 -5 -4 -4 -4 -3 -4 -3 -1 -3 -3 -3 -3 -4 -3 -3 -2 -1 -1
-6 -5 -4 -4 -4 -3 -4 -4 -4 -5 -7 -8 -7 -7 -7 -7 -8 -7 -7 -7 -6 -6 -6 -6 -6 -6 -6 -6 -5 -5 -5 -5 -4 -4 -4 -5 -4 -4 -4 -4 -4 -3 -2 -2
-6 -5 -4 -4 -4 -4 -5 -5 -5 -6 -6 -7 -8 -8 -7 -7 -9 -8 -8 -7 -7 -7 -7 -7 -7 -6 -7 -7 -6 -6 -6 -6 -5 -5 -5 -5 -5 -5 -4 -4 -4 -4 -3 -3
-6 -5 -5 -5 -5 -5 -5 -5 -6 -7 -7 -7 -8 -9 -9 -9 -9 -8 -8 -8 -8 -8 -7 -7 -7 -7 -7 -7 -7 -7 -7 -7 -6 -6 -5 -6 -5 -5 -4 -5 -4 -4 -4 -4
-6 -6 -5 -5 -5 -5 -6 -6 -7 -8 -8 -8 -9 -9 -9 -9 -9 -9 -9 -9 -9 -8 -8 -8 -8 -7 -8 -8 -7 -8 -7 -7 -7 -6 -6 -5 -4 -4 -4 -4 -4 -5 -5 -5
-6 -6 -6 -6 -6 -6 -6 -6 -7 -7 -8 -9 -9 -10 -10 -10 -10 -10 -9 -10 -9 -9 -9 -9 -9 -8 -9 -7 -7 -8 -8 -8 -8 -7 -6 -5 -5 -4 -5 -5 -5 -5 -5 -6
-7 -6 -6 -6 -6 -7 -6 -7 -8 -8 -8 -9 -9 -10 -10 -11 -11 -12 -11 -10 -10 -10 -10 -10 -10 -8 -7 -8 -8 -7 -8 -9 -8 -8 -7 -5 -5 -5 -5 -5 -5 -6 -6 -7
-7 -7 -7 -7 -7 -7 -7 -8 -8 -9 -9 -10 -10 -11 -11 -11 -11 -11 -12 -11 -11 -11 -11 -11 -10 -9 -9 -9 -8 -8 -8 -10 -9 -9 -7 -7 -6 -6 -6 -6 -6 -6 -6 -7
-8 -8 -8 -8 -8 -8 -8 -9 -10 -10 -11 -11 -11 -11 -12 -12 -12 -13 -13 -12 -12 -12 -12 -11 -10 -9 -9 -9 -9 -8 -8 -8 -8 -9 -8 -7 -7 -7 -7 -6 -7 -7 -7 -7
-8 -8 -8 -9 -9 -9 -10 -10 -11 -12 -12 -12 -12 -12 -13 -13 -13 -13 -14 -13 -13 -13 -13 -12 -12 -11 -11 -11 -10 -10 -10 -9 -8 -7 -7 -7 -7 -7 -8 -7 -7 -8 -7 -7
-9 -9 -9 -10 -10 -11 -12 -12 -13 -13 -13 -13 -13 -13 -13 -13 -13 -14 -14 -14 -13 -14 -14 -14 -14 -13 -13 -12 -11 -11 -11 -10 -11 -10 -9 -8 -8 -9 -8 -8 -8 -8 -8 -7
-10 -11 -11 -11 -12 -13 -14 -14 -14 -14 -14 -14 -14 -13 -13 -14 -14 -14 -14 -14 -15 -14 -15 -15 -15 -14 -14 -14 -14 -13 -13 -12 -11 -11 -11 -11 -10 -8 -7 -7 -8 -8 -8 -7
-12 -13 -13 -13 -13 -14 -14 -14 -15 -15 -15 -15 -15 -14 -14 -13 -13 -14 -14 -14 -14 -14 -15 -15 -15 -15 -14 -14 -15 -14 -14 -13 -13 -13 -11 -10 -9 -9 -10 -10 -9 -8 -8 -8
-13 -13 -14 -14 -14 -15 -15 -15 -15 -15 -15 -15 -15 -14 -14 -14 -14 -14 -14 -14 -14 -14 -15 -14 -14 -14 -15 -15 -14 -14 -14 -14 -12 -12 -13 -12 -12 -11 -10 -10 -9 -9 -9 -9
-14 -14 -14 -14 -15 -15 -15 -15 -15 -15 -15 -15 -15 -14 -14 -14 -14 -14 -14 -15 -15 -15 -15 -15 -15 -14 -15 -15 -15 -10 -12 -13 -14 -14 -14 -14 -14 -12 -10 -10 -10 -10 -10 -10
-15 -15 -15 -15 -15 -15 -15 -15 -15 -15 -15 -16 -16 -15 -15 -15 -15 -15 -15 -15 -15 -15 -15 -14 -15 -15 -15 -15 -11 -12 -13 -14 -14 -14 -13 -13 -13 -13 -13 -11 -11 -11 -10 -9
-15 -15 -15 -15 -15 -15 -15 -15 -15 -15 -16 -16 -16 -16 -16 -16 -16 -16 -16 -15 -15 -15 -14 -14 -15 -15 -15 -13 -13 -13 -14 -14 -14 -14 -14 -13 -11 -11 -11 -11 -10 -10 -9 -9
-15 -15 -15 -15 -15 -15 -15 -15 -15 -15 -16 -16 -16 -15 -16 -16 -16 -16 -16 -16 -16 -16 -15 -15 -15 -14 -13 -14 -14 -14 -14 -14 -13 -12 -11 -11 -11 -10 -10 -10 -10 -9 -9 -9
-15 -15 -15 -15 -15 -15 -15 -15 -15 -15 -15 -15 -15 -16 -16 -16 -16 -16 -16 -16 -15 -15 -15 -15 -14 -14 -14 -14 -13 -13 -13 -13 -12 -11 -9 -9 -10 -10 -10 -10 -10 -9 -9 -8
-16 -16 -16 -16 -16 -15 -16 -16 -16 -15 -15 -15 -16 -16 -16 -16 -16 -16 -16 -16 -16 -15 -15 -14 -14 -13 -13 -12 -13 -13 -12 -11 -10 -10 -9 -9 -9 -8 -9 -9 -9 -9 -9 -8
-16 -16 -16 -16 -16 -16 -16 -15 -15 -15 -16 -16 -16 -16 -16 -16 -16 -17 -16 -16 -15 -15 -14 -13 -13 -13 -13 -13 -13 -12 -11 -11 -10 -9 -8 -7 -8 -8 -8 -8 -8 -8 -8 -8
-16 -16 -16 -16 -16 -15 -15 -15 -15 -16 -16 -16 -16 -16 -16 -16 -17 -17 -16 -15 -15 -13 -12 -13 -13 -13 -13 -13 -13 -12 -11 -10 -10 -9 -8 -7 -7 -8 -8 -8 -8 -8 -8 -8
-16 -16 -16 -15 -15 -15 -15 -16 -16 -16 -16 -16 -16 -16 -16 -16 -17 -16 -16 -15 -14 -13 -14 -14 -14 -14 -14 -13 -12 -12 -11 -10 -10 -9 -9 -8 -8 -9 -8 -8 -8 -8 -8 -8
-16 -16 -15 -15 -16 -16 -16 -16 -16 -17 -17 -17 -17 -17 -16 -16 -16 -15 -15 -14 -13 -13 -14 -15 -15 -14 -13 -13 -12 -12 -11 -10 -10 -10 -9 -9 -9 -9 -9 -8 -8 -8 -8 -7
-16 -15 -16 -16 -16 -17 -17 -17 -17 -17 -17 -17 -17 -17 -16 -16 -16 -15 -14 -14 -14 -14 -15 -15 -15 -14 -13 -13 -12 -11 -10 -10 -10 -9 -9 -9 -9 -8 -8 -8 -8 -8 -8 -7
Height
3056 3058 3060 3060 3059 3058 3058 3056 3056 3054 3054 3057 3054 3054 3055 3054 3054 3056 3057 3057 3060 3062 3064 3062 3062 3060 3059 3058 3057 3059 3057 3058 3059 3059 3057 3059 3060 3062 3063 3064 3064 3064 3062 3054
3046 3049 3053 3054 3053 3053 3053 3052 3050 3050 3049 3049 3049 3049 3051 3050 3049 3050 3051 3052 3052 3053 3057 3060 3057 3057 3056 3057 3057 3056 3056 3057 3058 3057 3058 3056 3056 3057 3058 3060 3061 3057 3057 3051
3041 3044 3047 3048 3047 3048 3049 3049 3049 3047 3046 3045 3045 3045 3044 3048 3047 3046 3045 3047 3049 3048 3050 3053 3053 3052 3051 3052 3053 3054 3054 3053 3054 3053 3054 3054 3053 3053 3054 3055 3053 3048 3047 3046
3037 3040 3041 3043 3043 3043 3044 3043 3042 3043 3040 3040 3041 3042 3041 3044 3044 3042 3042 3042 3043 3044 3045 3046 3047 3049 3048 3048 3049 3050 3050 3048 3049 3049 3049 3050 3048 3050 3051 3049 3046 3044 3042 3042
3032 3034 3036 3038 3038 3038 3038 3039 3038 3038 3039 3037 3039 3038 3036 3036 3041 3040 3040 3039 3038 3040 3040 3041 3043 3044 3044 3044 3044 3043 3043 3044 3043 3042 3043 3043 3041 3042 3042 3039 3039 3037 3037 3033
3027 3029 3030 3033 3033 3033 3032 3033 3034 3034 3035 3033 3034 3036 3038 3036 3036 3035 3034 3035 3034 3037 3035 3035 3037 3039 3040 3040 3040 3040 3039 3039 3039 3036 3038 3036 3032 3031 3028 3029 3030 3031 3030 3032
3023 3024 3026 3027 3029 3029 3030 3029 3030 3031 3030 3030 3029 3030 3032 3032 3036 3033 3032 3033 3030 3032 3030 3031 3032 3032 3033 3032 3033 3034 3034 3035 3035 3033 3034 3029 3023 3023 3023 3023 3023 3023 3022 3025
3021 3022 3023 3023 3024 3026 3026 3027 3027 3026 3027 3026 3024 3026 3027 3029 3032 3027 3026 3029 3027 3029 3027 3027 3028 3029 3027 3025 3026 3027 3029 3031 3030 3029 3026 3020 3018 3018 3018 3017 3019 3018 3019 3020
3017 3017 3018 3019 3020 3021 3021 3021 3022 3024 3021 3019 3020 3020 3024 3027 3030 3025 3023 3023 3024 3024 3023 3024 3024 3025 3025 3024 3021 3021 3022 3024 3027 3025 3023 3017 3013 3012 3012 3012 3014 3011 3012 3014
3011 3013 3014 3015 3016 3017 3017 3016 3017 3018 3017 3016 3017 3016 3018 3020 3020 3020 3020 3018 3021 3019 3019 3020 3021 3020 3023 3019 3018 3018 3017 3017 3016 3018 3017 3011 3011 3012 3010 3012 3013 3007 3009 3009
3009 3009 3010 3011 3012 3010 3011 3012 3013 3014 3012 3012 3012 3012 3014 3014 3014 3016 3015 3018 3015 3015 3014 3015 3016 3013 3014 3011 3013 3013 3014 3013 3011 3012 3012 3008 3006 3005 3009 3005 3004 3004 3005 3005
3005 3006 3006 3006 3007 3006 3004 3008 3007 3008 3009 3009 3007 3008 3011 3010 3007 3010 3009 3014 3013 3012 3011 3011 3010 3008 3007 3007 3005 3008 3006 3007 3006 3006 3003 2999 3000 3001 2999 2999 3000 3000 3000 2999
3000 3001 3000 3001 3002 3002 3002 3002 3004 3003 3002 3005 3004 3003 3006 3005 3003 3003 3005 3007 3007 3006 3006 3005 3005 3003 3004 3001 2998 3000 3000 3000 2995 2996 2995 2994 2995 2994 2994 2995 2995 2995 2993 2992
2996 2996 2996 2996 2997 2999 2999 3000 2999 3000 3001 2998 3000 3000 2999 3000 3000 3000 3000 3002 3001 3001 3000 2998 2997 2997 2996 2992 2991 2988 2993 2993 2989 2983 2986 2986 2984 2987 2991 2990 2988 2985 2984 2986
2991 2992 2991 2992 2994 2994 2996 2997 2995 2997 2999 2996 2998 2998 2996 2996 2995 2994 2994 2995 2994 2993 2993 2990 2989 2988 2987 2980 2978 2970 2981 2978 2977 2966 2978 2975 2974 2977 2977 2975 2974 2975 2977 2976
2987 2986 2988 2989 2991 2992 2992 2993 2993 2993 2993 2994 2993 2994 2992 2990 2990 2990 2990 2989 2988 2986 2985 2981 2978 2979 2978 2970 2962 2966 2967 2963 2958 2954 2963 2959 2959 2959 2960 2960 2965 2966 2963 2964
2984 2985 2986 2988 2989 2990 2991 2992 2991 2991 2992 2991 2989 2989 2989 2988 2987 2987 2986 2984 2982 2979 2976 2970 2970 2969 2971 2962 2952 2944 2948 2948 2947 2947 2948 2940 2944 2940 2949 2949 2949 2950 2950 2952
2982 2984 2985 2987 2987 2987 2988 2989 2989 2989 2989 2989 2988 2986 2986 2985 2983 2982 2979 2977 2973 2970 2966 2964 2959 2959 2959 2946 2936 2937 2936 2934 2931 2931 2931 2927 2928 2928 2931 2934 2937 2937 2938 2944
2982 2983 2984 2986 2986 2986 2987 2987 2987 2987 2990 2987 2985 2984 2984 2980 2978 2975 2973 2970 2965 2960 2955 2953 2952 2948 2943 2937 2935 2931 2927 2924 2919 2917 2915 2914 2914 2918 2920 2923 2925 2927 2931 2936
2981 2983 2985 2984 2985 2985 2987 2985 2984 2983 2984 2983 2982 2983 2981 2980 2976 2973 2970 2964 2959 2953 2949 2946 2941 2936 2935 2934 2928 2920 2914 2909 2905 2900 2899 2900 2898 2903 2908 2911 2916 2918 2922 2928
2980 2982 2983 2984 2984 2984 2983 2982 2982 2981 2981 2981 2982 2981 2979 2977 2974 2970 2968 2962 2957 2950 2946 2942 2936 2931 2930 2925 2918 2911 2903 2898 2893 2890 2888 2890 2892 2895 2900 2904 2908 2912 2915 2920
2979 2981 2981 2982 2982 2981 2981 2979 2980 2980 2981 2980 2979 2978 2976 2972 2969 2966 2962 2957 2953 2945 2942 2939 2931 2929 2926 2917 2907 2900 2894 2888 2883 2880 2879 2880 2882 2887 2892 2897 2901 2905 2909 2914
2978 2979 2979 2980 2980 2979 2977 2977 2978 2979 2978 2978 2976 2975 2972 2969 2966 2963 2959 2953 2947 2943 2938 2932 2927 2924 2916 2907 2898 2891 2887 2881 2877 2874 2873 2873 2877 2881 2886 2891 2896 2901 2906 2911
2977 2977 2977 2977 2976 2975 2976 2977 2977 2977 2976 2975 2973 2971 2969 2966 2962 2958 2954 2949 2944 2938 2932 2929 2923 2916 2908 2901 2894 2887 2882 2877 2874 2872 2871 2872 2875 2879 2885 2890 2895 2900 2905 2910
2975 2975 2974 2973 2974 2974 2974 2975 2974 2973 2972 2971 2969 2967 2965 2961 2958 2955 2951 2946 2939 2934 2931 2926 2920 2912 2904 2896 2890 2885 2881 2878 2875 2875 2876 2877 2880 2883 2887 2891 2895 2900 2904 2908
2973 2972 2971 2971 2972 2972 2971 2971 2970 2969 2968 2967 2966 2964 2960 2956 2954 2952 2948 2943 2937 2934 2928 2923 2915 2907 2901 2894 2889 2884 2881 2879 2878 2878 2879 2881 2884 2886 2888 2890 2894 2898 2903 2908
2969 2968 2968 2967 2967 2967 2966 2965 2965 2964 2964 2963 2963 2961 2959 2955 2950 2947 2944 2940 2936 2930 2922 2917 2911 2904 2898 2892 2888 2884 2881 2880 2879 2879 2881 2882 2884 2887 2890 2892 2895 2900 2905 2909
Wind_Speed
32 27 26 25 21 18 17 17 15 13 13 10 12 14 15 15 14 12 14 14 15 15 14 13 8 6 9 6 6 4 9 3 7 11 14 15 16 11 13 6 5 8 6 9
34 22 22 19 18 17 16 15 14 14 13 10 13 15 14 14 15 17 17 12 16 14 13 10 13 14 19 13 10 6 8 5 5 3 10 17 19 19 20 14 15 17 10 4
18 17 19 17 17 16 14 13 11 13 15 16 14 15 12 14 14 14 14 16 15 17 17 14 9 12 13 18 18 17 17 11 12 13 4 3 5 13 18 17 16 20 23 25
17 17 16 15 16 15 14 14 14 15 10 14 15 14 13 10 7 10 10 12 13 13 14 13 20 18 19 22 18 18 16 12 15 18 19 18 21 17 16 21 24 26 28 32
14 15 15 15 15 14 14 15 15 15 18 15 16 18 18 16 14 16 11 14 14 13 15 16 11 12 12 13 16 21 23 15 17 23 23 21 24 23 27 32 33 36 34 40
15 14 13 13 12 12 12 13 15 15 16 16 17 17 14 11 14 15 15 18 13 13 16 19 20 22 23 23 20 17 16 15 15 19 16 16 19 24 29 30 29 27 29 22
14 12 11 11 11 11 11 11 12 14 17 16 13 18 16 17 19 16 13 13 14 17 16 18 20 23 22 22 23 23 22 15 15 11 8 11 13 16 21 24 21 18 17 15
11 10 10 10 11 11 11 10 11 13 15 14 17 16 16 17 18 16 19 21 20 18 16 16 10 11 14 23 23 24 24 20 11 7 15 22 26 20 14 16 13 11 12 13
11 10 10 11 12 12 13 12 11 12 12 14 15 14 15 15 13 15 21 21 20 18 16 8 6 9 10 7 5 12 22 26 23 9 8 7 3 10 9 9 8 9 15 14
11 11 11 11 13 15 14 13 13 13 12 13 13 13 14 15 16 15 18 19 18 18 13 15 19 22 16 16 17 13 13 14 28 28 22 14 17 15 10 6 6 14 16 11
12 12 13 14 15 16 16 16 16 15 14 16 16 16 17 16 15 15 12 13 15 15 14 14 17 19 20 21 23 19 19 13 16 18 25 20 17 18 16 12 13 16 20 18
12 13 15 16 16 17 16 15 14 14 13 12 12 13 15 16 17 17 16 12 12 9 6 7 10 14 15 17 25 19 30 28 24 19 12 13 8 14 16 22 20 17 20 25
14 15 15 16 15 14 13 12 13 14 13 13 13 12 10 2 6 12 15 14 15 17 18 19 21 24 19 23 23 25 28 23 28 28 34 31 17 24 21 22 20 22 28 30
14 15 14 15 14 12 8 11 12 12 13 15 13 14 21 19 9 17 21 19 21 21 22 22 22 25 22 30 32 36 31 27 31 37 32 32 32 34 31 28 35 40 40 37
13 12 13 13 12 11 11 13 13 12 12 14 13 6 6 18 20 17 17 17 19 20 23 28 30 29 32 39 38 46 33 38 40 50 39 43 44 40 40 41 43 44 43 46
12 11 10 8 7 6 7 7 8 9 9 12 15 8 12 15 17 18 15 14 19 23 27 32 36 36 30 32 40 35 31 37 44 48 39 43 43 41 39 41 35 34 38 38
8 7 6 5 5 5 5 6 7 8 10 12 9 13 6 12 10 12 18 17 20 26 28 35 38 39 37 42 50 39 41 47 51 51 47 49 44 43 29 30 33 35 37 38
6 5 3 3 5 6 5 6 8 9 9 12 7 11 16 17 20 16 19 24 25 29 30 34 37 31 26 38 42 34 31 30 31 31 31 36 30 31 32 30 29 32 33 33
5 4 4 4 4 4 4 6 8 9 10 10 11 14 15 14 23 24 21 21 27 27 28 29 23 20 22 27 27 30 30 32 36 37 37 33 29 29 29 27 29 30 34 33
7 7 6 5 4 5 6 9 13 14 11 13 17 15 16 14 13 17 18 17 14 16 18 15 17 26 16 16 31 33 31 33 32 34 34 32 33 31 34 32 31 35 36 31
8 7 7 6 5 7 10 8 5 4 4 5 5 10 14 17 20 21 12 11 10 9 8 9 7 12 12 39 37 28 26 26 25 27 21 22 25 25 22 21 25 28 31 27
6 8 8 8 8 7 6 5 4 4 4 5 10 15 20 22 22 14 9 12 7 9 8 7 7 9 32 43 37 29 22 18 19 19 19 20 26 23 22 24 26 26 24 23
5 5 6 5 6 6 5 4 5 4 7 11 15 18 22 21 13 11 10 6 10 11 7 6 5 39 45 41 35 31 21 15 14 13 14 15 18 22 24 24 23 23 23 22
4 4 5 4 5 4 7 5 7 8 9 13 17 20 19 24 17 8 7 9 8 6 5 7 43 47 44 39 34 31 22 14 8 6 1 5 10 15 21 21 21 20 18 19
4 4 4 6 8 9 6 10 10 11 17 17 20 21 21 19 8 6 7 6 6 5 10 41 47 45 40 36 32 27 17 10 3 3 5 9 8 12 15 19 20 18 17 20
10 9 9 7 7 12 15 13 15 19 18 18 19 16 9 8 5 5 6 6 6 18 40 46 45 39 35 32 28 21 13 7 1 6 9 10 10 14 16 17 19 20 21 22
8 12 15 14 16 14 16 16 17 19 20 19 14 6 6 7 8 7 7 14 28 38 47 43 36 34 31 29 22 14 10 5 1 7 9 10 9 20 23 22 22 23 22 22
Wind_Direction
259 256 268 272 276 280 280 280 274 267 258 236 234 247 248 256 254 256 253 256 260 265 274 284 274 255 254 280 230 210 224 230 223 227 243 232 214 222 225 230 192 232 270 263
254 253 262 266 273 274 275 270 267 257 251 230 241 252 256 255 252 250 257 247 251 249 264 271 255 250 247 254 241 231 223 221 233 246 267 249 238 241 239 248 254 246 242 262
240 246 254 261 264 267 269 265 260 254 244 240 231 241 248 259 260 244 240 256 261 258 259 252 259 248 244 243 249 250 253 237 239 257 305 238 237 253 251 234 241 251 246 268
230 243 252 257 261 264 265 260 256 252 249 239 233 239 246 232 256 253 259 252 249 249 263 270 267 260 261 258 251 246 247 251 253 256 259 257 262 254 251 249 252 257 271 277
231 237 242 250 257 261 261 258 253 246 251 245 241 243 248 249 248 246 254 254 260 251 248 254 256 251 267 269 268 253 244 249 247 253 261 261 264 261 260 259 260 264 271 276
225 229 239 252 261 266 265 259 251 245 249 241 241 250 253 254 251 256 244 253 249 245 243 248 258 263 265 265 264 261 253 252 257 268 264 263 266 258 265 265 260 262 264 279
220 230 245 257 267 269 265 261 252 245 250 247 249 244 250 246 251 246 244 248 250 250 253 259 267 274 268 263 259 253 250 245 240 261 259 255 257 262 261 259 259 259 265 251
229 243 259 269 275 277 276 273 264 254 255 254 255 254 252 252 258 260 255 256 254 256 262 271 281 277 278 273 263 252 252 245 246 232 236 268 283 276 251 249 262 252 245 243
224 238 252 265 274 280 279 280 277 267 263 256 256 256 255 251 258 262 265 260 263 264 263 262 245 249 271 254 266 237 239 236 236 240 248 262 144 246 260 243 235 201 208 217
227 242 259 272 278 279 283 283 279 270 265 263 257 250 249 254 254 253 260 268 266 261 257 252 257 260 257 251 246 254 228 218 226 234 244 262 247 257 241 239 169 215 203 233
241 255 269 276 281 285 287 285 278 272 266 265 263 261 258 260 260 259 268 283 275 264 247 251 252 259 253 255 246 245 237 234 229 233 244 254 254 248 230 228 224 218 218 249
257 270 276 281 284 284 284 276 275 270 272 271 269 261 260 261 263 264 270 250 262 258 237 246 248 255 261 260 263 250 246 242 252 240 241 246 238 221 235 236 238 236 247 254
263 272 280 281 282 282 277 272 269 273 276 278 279 273 240 210 274 254 268 277 274 266 267 259 257 257 260 261 260 262 252 254 258 253 246 244 245 257 235 239 244 260 264 258
264 272 273 277 278 275 255 259 268 278 289 294 287 267 259 260 261 287 276 273 269 274 268 266 262 263 263 266 268 262 259 262 258 260 258 259 243 245 240 243 256 263 263 261
262 264 272 272 272 264 250 255 274 279 280 281 280 282 197 283 287 282 271 274 275 266 273 272 272 276 277 275 271 263 261 259 254 258 266 269 274 272 266 262 257 257 264 263
258 258 257 263 270 254 249 265 269 280 293 291 302 321 299 284 269 274 278 285 277 274 274 271 271 274 265 268 268 273 271 266 275 272 271 274 272 268 261 263 268 265 262 263
237 243 261 265 244 239 249 259 284 286 289 296 303 313 315 312 303 271 283 286 284 279 276 268 276 280 271 271 273 296 290 282 277 272 272 273 274 271 267 257 254 255 256 255
207 209 216 220 203 213 235 259 274 286 290 295 282 289 310 312 303 298 296 299 293 288 281 279 278 283 274 264 293 301 300 293 285 281 275 275 270 257 253 243 243 245 250 250
174 176 168 173 186 213 247 271 281 274 271 279 281 296 314 304 308 309 307 300 299 294 282 284 284 269 244 293 303 300 298 289 282 270 261 263 265 255 237 226 232 246 246 244
176 190 209 229 229 272 287 289 288 279 261 268 276 303 310 322 331 315 312 301 287 272 281 287 258 277 307 333 327 316 298 290 285 280 270 256 232 224 220 223 228 235 242 240
197 213 225 237 258 283 297 277 251 244 266 269 292 315 317 318 318 314 291 278 278 272 280 263 262 273 340 334 329 321 311 293 278 274 263 254 256 241 231 232 239 239 240 236
225 235 239 251 271 270 250 246 232 225 246 263 303 312 318 320 324 310 294 275 262 254 266 261 260 226 314 321 331 331 322 301 291 276 265 247 226 218 211 216 219 222 222 215
240 239 246 249 231 241 232 240 234 229 280 295 308 316 318 321 321 291 270 259 249 271 245 249 250 326 330 332 333 336 339 326 301 287 272 241 226 219 204 204 210 212 203 197
208 237 235 238 227 235 230 252 242 276 293 310 309 313 311 313 304 269 257 255 271 257 272 320 329 328 330 334 338 337 342 345 341 338 245 188 202 206 203 200 199 201 203 200
249 263 246 242 240 233 274 272 265 287 300 306 308 312 315 306 269 253 273 264 254 275 313 326 325 329 330 333 338 338 345 356 28 86 144 137 154 175 182 193 200 207 193 184
267 253 251 268 268 268 277 271 266 288 292 298 302 312 293 287 261 264 267 274 285 310 316 318 325 328 330 333 336 333 345 1 96 173 177 172 184 212 217 191 181 177 177 180
262 283 301 288 290 286 268 268 275 279 283 285 292 279 262 291 268 257 268 283 298 307 312 321 326 325 328 331 332 332 346 15 79 183 186 203 210 159 154 156 159 164 169 169